Biloxi, MS

7:09 AM CST on February 23, 2017 (GMT -0600)
Keesler Air Force Base

Weather History for KBIX - January, 2013

Change the Weather History Date:

Saturday, January 12, 2013

  Actual Average Record
Temperature  
Mean Temperature 69 °F -  
Max Temperature 72 °F 57 °F 76 °F (1949)
Min Temperature 66 °F 40 °F 13 °F (1962)
Cooling Degree Days 4    
Growing Degree Days 19 (Base 50)    
Moisture  
Dew Point 67 °F    
Average Humidity 98    
Maximum Humidity 100    
Minimum Humidity 86    
Precipitation  
Precipitation 0.00 in - - ()
Sea Level Pressure  
Sea Level Pressure 30.03 in    
Wind  
Wind Speed 11 mph (SSE)    
Max Wind Speed 16 mph    
Max Gust Speed 24 mph    
Visibility 3 miles    
Events Fog    
Averages and records for this station are not official NWS values.
T = Trace of Precipitation, MM = Missing Value Source: NWS Daily Summary

Daily Weather History Graph

Daily Weather History Graph

Search for Another Location

Airport or City:

Trip Planner

Search our weather history database for the weather conditions in past years. The results will help you decide how hot, cold, wet, or windy it might be!

Date:

Astronomy

Jan. 12, 2013 Rise Set
Actual Time 6:53 AM CST 5:15 PM CST
Civil Twilight 6:27 AM CST 5:41 PM CST
Nautical Twilight 5:57 AM CST 6:10 PM CST
Astronomical Twilight 5:28 AM CST 6:39 PM CST
Moon 7:19 AM CST (1/12) 6:35 PM CST (1/12)
Length of Visible Light 11h 13m
Length of Day
10h 21m
New Moon, 1% of the Moon is Illuminated
Jan 12
New Moon
Jan 18
First Quarter
Jan 26
Full
Feb 3
Last Quarter
Feb 10
New

Hourly Weather History & Observations

Time (CST) Temp. Dew Point Humidity Pressure Visibility Wind Dir Wind Speed Gust Speed Precip Events Conditions
12:21 AM 68.0 °F 68.0 °F 100% 30.07 in 1.5 mi SE 12.7 mph 21.9 mph N/A   Overcast
12:24 AM 68.0 °F 66.2 °F 94% 30.07 in 1.8 mi SE 11.5 mph 21.9 mph N/A   Overcast
12:26 AM 68.0 °F 66.2 °F 94% 30.08 in 1.5 mi SE 12.7 mph 20.7 mph N/A   Overcast
12:29 AM 68.0 °F 66.2 °F 94% 30.08 in 1.2 mi SE 13.8 mph 20.7 mph N/A   Overcast
12:53 AM 68.0 °F 66.2 °F 94% 30.07 in 0.8 mi SE 13.8 mph 21.9 mph N/A   Mist
12:54 AM 68.0 °F 66.2 °F 94% 30.07 in 0.8 mi SE 13.8 mph 19.6 mph N/A   Mist
12:55 AM 67.5 °F 67.1 °F 99% 30.07 in 0.8 mi SE 12.7 mph 19.6 mph N/A   Mist
1:02 AM 68.0 °F 68.0 °F 100% 30.07 in 0.8 mi SE 12.7 mph 19.6 mph N/A   Mist
1:04 AM 68.0 °F 68.0 °F 100% 30.07 in 1.0 mi SE 11.5 mph 19.6 mph N/A   Mist
1:06 AM 68.0 °F 68.0 °F 100% 30.07 in 1.2 mi SE 11.5 mph 19.6 mph N/A   Overcast
1:10 AM 68.0 °F 68.0 °F 100% 30.07 in 1.5 mi SE 10.4 mph - N/A   Overcast
1:19 AM 68.0 °F 66.2 °F 94% 30.07 in 1.8 mi SE 10.4 mph 18.4 mph N/A   Overcast
1:21 AM 68.0 °F 66.2 °F 94% 30.07 in 2.0 mi ESE 9.2 mph 18.4 mph N/A   Overcast
1:23 AM 68.0 °F 66.2 °F 94% 30.07 in 2.5 mi SE 9.2 mph 16.1 mph N/A   Overcast
1:26 AM 68.0 °F 66.2 °F 94% 30.07 in 3.0 mi SE 9.2 mph - N/A   Overcast
1:27 AM 68.0 °F 66.2 °F 94% 30.07 in 3.0 mi SE 11.5 mph 17.3 mph N/A   Overcast
1:31 AM 68.0 °F 66.2 °F 94% 30.07 in 4.0 mi SE 8.1 mph 17.3 mph N/A   Overcast
1:43 AM 68.0 °F 68.0 °F 100% 30.07 in 5.0 mi SE 10.4 mph - N/A   Overcast
1:55 AM 67.6 °F 67.3 °F 99% 30.07 in 5.0 mi SE 12.7 mph - N/A   Overcast
1:59 AM 68.0 °F 68.0 °F 100% 30.07 in 2.5 mi SE 11.5 mph 18.4 mph N/A   Overcast
2:00 AM 68.0 °F 66.2 °F 94% 30.07 in 2.0 mi SE 12.7 mph 18.4 mph N/A   Overcast
2:01 AM 68.0 °F 66.2 °F 94% 30.07 in 1.8 mi SE 12.7 mph 18.4 mph N/A   Overcast
2:02 AM 68.0 °F 66.2 °F 94% 30.07 in 1.5 mi SSE 11.5 mph 18.4 mph N/A   Overcast
2:03 AM 68.0 °F 66.2 °F 94% 30.07 in 1.2 mi SSE 10.4 mph 18.4 mph N/A   Overcast
2:04 AM 68.0 °F 66.2 °F 94% 30.07 in 1.2 mi SE 11.5 mph - N/A   Overcast
2:34 AM 66.2 °F 66.2 °F 100% 30.07 in 1.5 mi SSE 10.4 mph - N/A   Overcast
2:37 AM 66.2 °F 66.2 °F 100% 30.07 in 1.8 mi SSE 11.5 mph - N/A   Overcast
2:38 AM 66.2 °F 66.2 °F 100% 30.07 in 1.8 mi SSE 10.4 mph - N/A   Overcast
2:39 AM 66.2 °F 66.2 °F 100% 30.07 in 2.0 mi SSE 10.4 mph - N/A   Overcast
2:40 AM 66.2 °F 66.2 °F 100% 30.07 in 2.0 mi SSE 10.4 mph - N/A   Overcast
2:41 AM 66.2 °F 66.2 °F 100% 30.07 in 2.5 mi SSE 10.4 mph - N/A   Overcast
2:43 AM 66.2 °F 66.2 °F 100% 30.07 in 3.0 mi SSE 10.4 mph - N/A   Overcast
2:55 AM 67.1 °F 66.9 °F 99% 30.07 in 2.5 mi SSE 10.4 mph - N/A   Overcast
2:57 AM 68.0 °F 66.2 °F 94% 30.07 in 2.5 mi SSE 9.2 mph - N/A   Overcast
2:58 AM 68.0 °F 66.2 °F 94% 30.07 in 2.0 mi SE 9.2 mph - N/A   Overcast
2:59 AM 68.0 °F 66.2 °F 94% 30.06 in 2.0 mi SE 10.4 mph - N/A   Overcast
3:14 AM 68.0 °F 68.0 °F 100% 30.06 in 1.8 mi SSE 9.2 mph 18.4 mph N/A   Overcast
3:16 AM 68.0 °F 68.0 °F 100% 30.06 in 1.5 mi SSE 10.4 mph 18.4 mph N/A   Overcast
3:18 AM 68.0 °F 68.0 °F 100% 30.06 in 1.2 mi SSE 11.5 mph 18.4 mph N/A   Overcast
3:32 AM 68.0 °F 68.0 °F 100% 30.05 in 1.5 mi SSE 9.2 mph - N/A   Overcast
3:35 AM 68.0 °F 68.0 °F 100% 30.05 in 1.8 mi SE 11.5 mph - N/A   Overcast
3:39 AM 68.0 °F 68.0 °F 100% 30.06 in 1.5 mi SSE 11.5 mph - N/A   Overcast
3:41 AM 68.0 °F 68.0 °F 100% 30.05 in 1.2 mi SSE 11.5 mph - N/A   Overcast
3:54 AM 68.0 °F 68.0 °F 100% 30.05 in 0.8 mi SSE 10.4 mph - N/A   Mist
3:55 AM 67.8 °F 67.5 °F 99% 30.05 in 0.8 mi SSE 10.4 mph - N/A   Mist
4:01 AM 68.0 °F 68.0 °F 100% 30.04 in 0.8 mi SE 11.5 mph - N/A   Mist
4:04 AM 68.0 °F 68.0 °F 100% 30.04 in 0.5 mi SSE 10.4 mph - N/A Fog Fog
4:22 AM 68.0 °F 68.0 °F 100% 30.04 in 0.8 mi SSE 11.5 mph - N/A   Mist
4:24 AM 68.0 °F 68.0 °F 100% 30.04 in 0.8 mi SSE 9.2 mph - N/A   Mist
4:26 AM 68.0 °F 68.0 °F 100% 30.04 in 0.8 mi SSE 10.4 mph - N/A   Mist
4:29 AM 68.0 °F 68.0 °F 100% 30.04 in 1.0 mi SE 11.5 mph - N/A   Mist
4:32 AM 68.0 °F 68.0 °F 100% 30.04 in 1.5 mi SSE 11.5 mph 17.3 mph N/A   Overcast
4:33 AM 68.0 °F 68.0 °F 100% 30.04 in 1.8 mi SE 11.5 mph 17.3 mph N/A   Overcast
4:35 AM 68.0 °F 68.0 °F 100% 30.04 in 2.0 mi SSE 9.2 mph 17.3 mph N/A   Overcast
4:41 AM 68.0 °F 68.0 °F 100% 30.04 in 1.8 mi SSE 10.4 mph - N/A   Overcast
4:42 AM 68.0 °F 68.0 °F 100% 30.04 in 1.8 mi SSE 10.4 mph - N/A   Overcast
4:43 AM 68.0 °F 68.0 °F 100% 30.04 in 1.5 mi SSE 10.4 mph - N/A   Overcast
4:46 AM 68.0 °F 68.0 °F 100% 30.04 in 1.2 mi SSE 10.4 mph - N/A   Overcast
4:51 AM 68.0 °F 68.0 °F 100% 30.04 in 0.8 mi SSE 10.4 mph - N/A   Mist
4:54 AM 68.0 °F 68.0 °F 100% 30.04 in 0.8 mi SSE 10.4 mph - N/A   Mist
4:55 AM 67.8 °F 67.5 °F 99% 30.04 in 0.8 mi SSE 10.4 mph - N/A   Mist
4:56 AM 68.0 °F 68.0 °F 100% 30.04 in 0.8 mi SSE 10.4 mph - N/A   Mist
5:17 AM 68.0 °F 68.0 °F 100% 30.04 in 0.8 mi SSE 11.5 mph - N/A   Mist
5:23 AM 68.0 °F 68.0 °F 100% 30.04 in 1.0 mi SSE 10.4 mph - N/A   Mist
5:24 AM 68.0 °F 68.0 °F 100% 30.04 in 1.0 mi SSE 11.5 mph - N/A   Mist
5:32 AM 68.0 °F 68.0 °F 100% 30.04 in 1.5 mi SSE 9.2 mph - N/A   Overcast
5:36 AM 68.0 °F 68.0 °F 100% 30.04 in 1.8 mi SSE 10.4 mph - N/A   Overcast
5:39 AM 68.0 °F 68.0 °F 100% 30.04 in 2.0 mi SSE 10.4 mph - N/A   Overcast
5:40 AM 68.0 °F 68.0 °F 100% 30.04 in 2.0 mi SSE 10.4 mph - N/A   Overcast
5:41 AM 68.0 °F 68.0 °F 100% 30.04 in 2.5 mi SSE 10.4 mph - N/A   Overcast
5:44 AM 68.0 °F 68.0 °F 100% 30.05 in 3.0 mi SSE 10.4 mph - N/A   Overcast
5:55 AM 68.2 °F 67.8 °F 99% 30.05 in 3.0 mi SSE 10.4 mph - N/A   Overcast
6:04 AM 68.0 °F 68.0 °F 100% 30.06 in 2.5 mi SSE 10.4 mph - N/A   Overcast
6:09 AM 68.0 °F 68.0 °F 100% 30.06 in 2.0 mi SSE 11.5 mph - N/A   Overcast
6:11 AM 68.0 °F 68.0 °F 100% 30.06 in 2.0 mi SSE 10.4 mph - N/A   Overcast
6:13 AM 68.0 °F 68.0 °F 100% 30.06 in 2.5 mi SSE 10.4 mph - N/A   Overcast
6:15 AM 68.0 °F 68.0 °F 100% 30.06 in 2.5 mi SSE 11.5 mph - N/A   Overcast
6:16 AM 68.0 °F 68.0 °F 100% 30.06 in 3.0 mi SSE 10.4 mph - N/A   Overcast
6:17 AM 68.0 °F 68.0 °F 100% 30.06 in 3.0 mi SSE 10.4 mph - N/A   Overcast
6:21 AM 68.0 °F 68.0 °F 100% 30.06 in 5.0 mi SSE 10.4 mph - N/A   Overcast
6:27 AM 68.0 °F 68.0 °F 100% 30.06 in 8.0 mi SSE 10.4 mph - N/A   Overcast
6:42 AM 68.0 °F 68.0 °F 100% 30.07 in 10.0 mi SSE 11.5 mph - N/A   Overcast
6:55 AM 68.4 °F 68.0 °F 99% 30.07 in 10.0 mi SSE 9.2 mph - N/A   Overcast
6:58 AM 68.0 °F 68.0 °F 100% 30.07 in 10.0 mi SSE 11.5 mph - N/A   Overcast
7:50 AM 69.8 °F 68.0 °F 94% 30.08 in 7.0 mi SSE 12.7 mph - N/A   Overcast
7:55 AM 68.9 °F 68.5 °F 99% 30.08 in 4.0 mi SSE 11.5 mph 18.4 mph N/A   Overcast
8:15 AM 68.0 °F 68.0 °F 100% 30.09 in 8.0 mi SSE 11.5 mph - N/A   Overcast
8:28 AM 68.0 °F 68.0 °F 100% 30.09 in 2.5 mi SSE 10.4 mph - N/A   Overcast
8:29 AM 68.0 °F 68.0 °F 100% 30.09 in 2.0 mi SSE 10.4 mph - N/A   Overcast
8:30 AM 68.0 °F 68.0 °F 100% 30.09 in 1.8 mi SSE 10.4 mph - N/A   Overcast
8:31 AM 68.0 °F 68.0 °F 100% 30.10 in 1.5 mi SSE 10.4 mph - N/A   Overcast
8:32 AM 68.0 °F 68.0 °F 100% 30.10 in 1.2 mi SSE 10.4 mph - N/A   Overcast
8:36 AM 68.0 °F 68.0 °F 100% 30.10 in 1.0 mi SSE 10.4 mph - N/A   Mist
8:37 AM 68.0 °F 68.0 °F 100% 30.10 in 1.0 mi SSE 10.4 mph - N/A   Mist
8:40 AM 68.0 °F 68.0 °F 100% 30.10 in 0.8 mi SSE 9.2 mph - N/A   Mist
8:44 AM 68.0 °F 68.0 °F 100% 30.10 in 0.5 mi SSE 10.4 mph - N/A Fog Fog
8:47 AM 68.0 °F 68.0 °F 100% 30.10 in 0.5 mi SSE 10.4 mph - N/A Fog Fog
8:48 AM 68.0 °F 68.0 °F 100% 30.10 in 0.5 mi SSE 10.4 mph - N/A Fog Fog
8:49 AM 68.0 °F 68.0 °F 100% 30.10 in 0.5 mi SSE 9.2 mph - N/A Fog Fog
8:50 AM 68.0 °F 68.0 °F 100% 30.10 in 0.5 mi SSE 10.4 mph - N/A Fog Fog
8:51 AM 68.0 °F 68.0 °F 100% 30.10 in 0.8 mi SSE 9.2 mph - N/A   Mist
8:52 AM 68.0 °F 68.0 °F 100% 30.09 in 0.8 mi SSE 9.2 mph - N/A   Mist
8:54 AM 68.0 °F 68.0 °F 100% 30.10 in 1.0 mi SSE 10.4 mph - N/A   Mist
8:55 AM 68.4 °F 68.2 °F 99% 30.10 in 1.0 mi SSE 9.2 mph - N/A   Mist
8:58 AM 68.0 °F 68.0 °F 100% 30.10 in 1.5 mi SSE 10.4 mph - N/A   Overcast
8:59 AM 68.0 °F 68.0 °F 100% 30.10 in 1.8 mi SSE 11.5 mph - N/A   Overcast
9:00 AM 68.0 °F 68.0 °F 100% 30.10 in 2.0 mi SSE 10.4 mph - N/A   Overcast
9:01 AM 68.0 °F 68.0 °F 100% 30.10 in 2.5 mi SSE 9.2 mph - N/A   Mostly Cloudy
9:02 AM 68.0 °F 68.0 °F 100% 30.10 in 3.0 mi SSE 10.4 mph - N/A   Mostly Cloudy
9:17 AM 69.8 °F 68.0 °F 94% 30.10 in 9.0 mi SSE 10.4 mph - N/A   Scattered Clouds
9:55 AM 70.9 °F 70.0 °F 97% 30.09 in 10.0 mi SSE 11.5 mph - N/A   Clear
10:55 AM 72.7 °F 68.4 °F 86% 30.06 in 10.0 mi SSE 12.7 mph 19.6 mph N/A   Clear
11:55 AM 71.4 °F 68.0 °F 89% 30.04 in 10.0 mi SSE 12.7 mph 20.7 mph N/A   Mostly Cloudy
12:55 PM 71.6 °F 67.3 °F 86% 30.02 in 10.0 mi SSE 12.7 mph - N/A   Overcast
1:55 PM 71.8 °F 67.5 °F 86% 30.01 in 10.0 mi SSE 12.7 mph 18.4 mph N/A   Overcast
2:55 PM 70.9 °F 67.3 °F 88% 30.00 in 10.0 mi SE 10.4 mph - N/A   Overcast
3:26 PM 71.6 °F 68.0 °F 88% 30.00 in 10.0 mi SE 12.7 mph 19.6 mph N/A   Mostly Cloudy
3:50 PM 71.6 °F 68.0 °F 88% 30.01 in 10.0 mi SE 12.7 mph 20.7 mph N/A   Overcast
3:55 PM 70.9 °F 67.8 °F 90% 30.01 in 10.0 mi SE 11.5 mph - N/A   Mostly Cloudy
4:55 PM 70.3 °F 68.0 °F 92% 30.00 in 10.0 mi SE 16.1 mph 21.9 mph N/A   Mostly Cloudy
5:54 PM 68.0 °F 68.0 °F 100% 29.99 in 10.0 mi SE 15.0 mph 20.7 mph N/A   Mostly Cloudy
5:55 PM 68.2 °F 67.1 °F 96% 29.99 in 10.0 mi SSE 12.7 mph 20.7 mph N/A   Mostly Cloudy
6:10 PM 68.0 °F 66.2 °F 94% 30.00 in 5.0 mi SE 10.4 mph - N/A   Mostly Cloudy
6:12 PM 68.0 °F 66.2 °F 94% 30.01 in 5.0 mi SSE 11.5 mph - N/A   Mostly Cloudy
6:15 PM 68.0 °F 66.2 °F 94% 30.01 in 4.0 mi SE 10.4 mph - N/A   Overcast
6:25 PM 66.2 °F 66.2 °F 100% 30.00 in 2.5 mi SE 11.5 mph 18.4 mph N/A   Overcast
6:26 PM 66.2 °F 66.2 °F 100% 30.00 in 2.5 mi SE 10.4 mph 18.4 mph N/A   Overcast
6:27 PM 66.2 °F 66.2 °F 100% 30.00 in 2.0 mi SSE 10.4 mph 18.4 mph N/A   Overcast
6:30 PM 66.2 °F 66.2 °F 100% 30.00 in 2.0 mi SE 9.2 mph 18.4 mph N/A   Overcast
6:38 PM 66.2 °F 66.2 °F 100% 30.00 in 2.5 mi SSE 9.2 mph - N/A   Overcast
6:42 PM 66.2 °F 66.2 °F 100% 30.00 in 2.5 mi SE 10.4 mph - N/A   Overcast
6:47 PM 66.2 °F 66.2 °F 100% 30.00 in 3.0 mi SE 11.5 mph - N/A   Overcast
6:48 PM 66.2 °F 66.2 °F 100% 30.00 in 2.5 mi SE 11.5 mph 17.3 mph N/A   Overcast
6:49 PM 66.2 °F 66.2 °F 100% 30.00 in 3.0 mi SE 11.5 mph 17.3 mph N/A   Overcast
6:53 PM 66.2 °F 66.2 °F 100% 30.00 in 3.0 mi SSE 11.5 mph - N/A   Overcast
6:54 PM 66.2 °F 66.2 °F 100% 30.01 in 3.0 mi SSE 11.5 mph - N/A   Overcast
6:55 PM 66.7 °F 66.2 °F 98% 30.01 in 3.0 mi SSE 11.5 mph - N/A   Overcast
7:09 PM 66.2 °F 66.2 °F 100% 29.99 in 3.0 mi SSE 9.2 mph 18.4 mph N/A   Overcast
7:11 PM 66.2 °F 66.2 °F 100% 29.99 in 3.0 mi SSE 11.5 mph 18.4 mph N/A   Overcast
7:18 PM 66.2 °F 66.2 °F 100% 29.99 in 2.5 mi SSE 11.5 mph - N/A   Overcast
7:20 PM 66.2 °F 66.2 °F 100% 29.99 in 2.5 mi SSE 10.4 mph - N/A   Overcast
7:25 PM 66.2 °F 66.2 °F 100% 29.99 in 2.0 mi SE 11.5 mph 18.4 mph N/A   Overcast
7:33 PM 66.2 °F 66.2 °F 100% 29.98 in 2.0 mi SSE 11.5 mph 20.7 mph N/A   Overcast
7:34 PM 66.2 °F 66.2 °F 100% 29.98 in 2.5 mi SSE 12.7 mph 20.7 mph N/A   Overcast
7:38 PM 66.2 °F 66.2 °F 100% 29.99 in 3.0 mi SSE 10.4 mph 20.7 mph N/A   Overcast
7:39 PM 66.2 °F 66.2 °F 100% 29.99 in 3.0 mi SSE 11.5 mph 20.7 mph N/A   Overcast
7:50 PM 66.2 °F 66.2 °F 100% 29.98 in 2.5 mi SE 13.8 mph 19.6 mph N/A   Overcast
7:53 PM 66.2 °F 66.2 °F 100% 29.98 in 2.0 mi SE 13.8 mph 19.6 mph N/A   Overcast
7:54 PM 66.2 °F 66.2 °F 100% 29.98 in 2.0 mi SSE 13.8 mph 19.6 mph N/A   Overcast
7:55 PM 66.7 °F 66.2 °F 98% 29.98 in 2.0 mi SSE 13.8 mph - N/A   Overcast
8:11 PM 66.2 °F 66.2 °F 100% 29.97 in 1.8 mi SSE 13.8 mph 19.6 mph N/A   Overcast
8:19 PM 66.2 °F 66.2 °F 100% 29.96 in 1.5 mi SE 15.0 mph 20.7 mph N/A   Overcast
8:21 PM 66.2 °F 66.2 °F 100% 29.96 in 1.8 mi SE 12.7 mph 20.7 mph N/A   Overcast
8:23 PM 68.0 °F 66.2 °F 94% 29.96 in 1.8 mi SSE 12.7 mph 20.7 mph N/A   Overcast
8:25 PM 68.0 °F 66.2 °F 94% 29.96 in 2.0 mi SSE 13.8 mph 24.2 mph N/A   Overcast
8:27 PM 68.0 °F 66.2 °F 94% 29.96 in 2.5 mi SSE 15.0 mph 24.2 mph N/A   Overcast
8:30 PM 68.0 °F 66.2 °F 94% 29.96 in 3.0 mi SSE 12.7 mph 24.2 mph N/A   Overcast
8:34 PM 68.0 °F 66.2 °F 94% 29.97 in 2.5 mi SSE 12.7 mph 24.2 mph N/A   Overcast
8:40 PM 68.0 °F 66.2 °F 94% 29.97 in 2.5 mi SSE 13.8 mph 21.9 mph N/A   Overcast
8:41 PM 68.0 °F 66.2 °F 94% 29.97 in 2.0 mi SSE 13.8 mph 21.9 mph N/A   Overcast
8:45 PM 68.0 °F 66.2 °F 94% 29.97 in 1.8 mi SSE 13.8 mph - N/A   Overcast
8:47 PM 66.2 °F 66.2 °F 100% 29.97 in 1.5 mi SSE 11.5 mph - N/A   Overcast
8:49 PM 66.2 °F 66.2 °F 100% 29.97 in 1.2 mi SSE 12.7 mph - N/A   Overcast
8:55 PM 66.7 °F 66.2 °F 98% 29.98 in 1.0 mi SSE 11.5 mph - N/A   Mist
8:57 PM 66.2 °F 66.2 °F 100% 29.97 in 1.0 mi SSE 12.7 mph - N/A   Mist
8:59 PM 66.2 °F 66.2 °F 100% 29.97 in 1.0 mi SSE 11.5 mph - N/A   Mist
9:08 PM 66.2 °F 66.2 °F 100% 29.98 in 1.5 mi SSE 10.4 mph - N/A   Overcast
9:20 PM 66.2 °F 66.2 °F 100% 29.98 in 1.2 mi SE 10.4 mph - N/A   Overcast
9:25 PM 66.2 °F 66.2 °F 100% 29.98 in 1.5 mi SSE 10.4 mph - N/A   Overcast
9:29 PM 66.2 °F 66.2 °F 100% 29.97 in 1.8 mi SE 10.4 mph - N/A   Overcast
9:32 PM 66.2 °F 66.2 °F 100% 29.97 in 2.0 mi SE 11.5 mph - N/A   Overcast
9:47 PM 66.2 °F 66.2 °F 100% 29.98 in 1.8 mi SSE 11.5 mph 18.4 mph N/A   Overcast
9:51 PM 66.2 °F 66.2 °F 100% 29.98 in 2.0 mi SSE 10.4 mph 18.4 mph N/A   Overcast
9:55 PM 66.7 °F 66.4 °F 99% 29.98 in 2.0 mi SSE 10.4 mph 18.4 mph N/A   Overcast
9:58 PM 66.2 °F 66.2 °F 100% 29.98 in 2.5 mi SSE 11.5 mph - N/A   Overcast
9:59 PM 66.2 °F 66.2 °F 100% 29.98 in 2.5 mi SSE 10.4 mph - N/A   Overcast
10:02 PM 66.2 °F 66.2 °F 100% 29.98 in 3.0 mi SSE 12.7 mph - N/A   Overcast
10:04 PM 66.2 °F 66.2 °F 100% 29.98 in 3.0 mi SSE 10.4 mph - N/A   Overcast
10:07 PM 66.2 °F 66.2 °F 100% 29.98 in 4.0 mi SSE 12.7 mph - N/A   Overcast
10:11 PM 66.2 °F 66.2 °F 100% 29.98 in 5.0 mi SSE 11.5 mph - N/A   Overcast
10:55 PM 67.3 °F 66.9 °F 99% 29.98 in 7.0 mi SSE 11.5 mph - N/A   Overcast
11:06 PM 68.0 °F 66.2 °F 94% 29.98 in 5.0 mi SSE 11.5 mph - N/A   Overcast
11:12 PM 68.0 °F 66.2 °F 94% 29.98 in 4.0 mi SSE 11.5 mph - N/A   Overcast
11:31 PM 68.0 °F 66.2 °F 94% 29.97 in 4.0 mi SSE 12.7 mph - N/A   Overcast
11:45 PM 68.0 °F 66.2 °F 94% 29.98 in 4.0 mi SSE 12.7 mph - N/A   Overcast
11:52 PM 68.0 °F 66.2 °F 94% 29.97 in 3.0 mi SSE 11.5 mph - N/A   Overcast
11:55 PM 67.1 °F 66.7 °F 99% 29.97 in 4.0 mi SSE 11.5 mph - N/A   Overcast